sat.trackr.live / text

‹ back to catalog

STARLINK-32645

NORAD 62321 · 2024-239W

PAYLOAD ACTIVE UNKNOWN

§ Identity

Operator
Country
US
Launch date
2024-12-13
Launch site
AFWTR
Launch vehicle
Mass (kg)
RCS (m²)

Purposes: comms

External: N2YO · Heavens-Above · Gunter

§ Orbital elements

Epoch: 2026-05-24T19:47:08.813184Z

Period
94.11 min
Inclination
53.1567°
Eccentricity
0.0000268
Mean motion
15.30200260 rev/d
Perigee alt
475.0 km
Apogee alt
475.4 km
Semi-major
6,853.4 km
B*
9.6473e-4
RAAN
187.2746°
Arg perigee
105.3221°
Mean anomaly
254.7810°
Rev number
8,122

§ Raw data

STARLINK-326451 62321U 24239W   26144.82440756  .00028323  00000+0  96473-3 0  99962 62321  53.1567 187.2746 0000268 105.3221 254.7810 15.30200260 81227

JSON: /api/v1/satellites/62321 · /tle

For live sub-satellite position, see the globe view (requires WebGL).

§ Visibility from observer

Set your observer location to see the next 7 days of passes ≥ 10°. The values pass through the URL so the page stays shareable.

No JS? Fill the form by hand. The geolocation button needs JavaScript.